Regional Weather Roundup
Issued by NWS

Home | Current Version | Previous Version | Graphics & Text | Print | Product List | Glossary On
Versions: 1 2 3 4 5 6 7 8 9 10 11 12 13 14 15 16 17 18 19 20 21 22 23 24 25 26 27 28 29 30 31 32 33 34 35 36 37 38 39 40 41 42 43 44 45 46 47 48 49 50
000
ASUS45 KCYS 080310
RWRWY

WYOMING REGIONAL WEATHER ROUNDUP
NATIONAL WEATHER SERVICE CHEYENNE WY
900 PM MDT TUE JUL 07 2015

NOTE:  "FAIR" INDICATES FEW OR NO CLOUDS BELOW 12,000 FEET
WITH NO SIGNIFICANT WEATHER AND/OR OBSTRUCTIONS TO VISIBILITY.

WYZ001-080400-
YELLOWSTONE NATIONAL PARK

CITY           SKY/WX    TMP DP  RH WIND       PRES   REMARKS
LK YELLOWSTONE   N/A     55  41  59 NE7       30.24R
W YELLOWSTONE  NOT AVBL

$$
WYZ002>013-054>058-071-098>099-080400-
NORTHERN WYOMING

CITY           SKY/WX    TMP DP  RH WIND       PRES   REMARKS
JACKSON        CLOUDY    59  52  77 N8G18     30.13R THUNDER
CODY           CLOUDY    66  46  48 NW3       30.09R
GREYBULL       MOCLDY    69  52  54 S14G24    30.01R
WORLAND        FAIR      62  54  74 S9G20     30.06R
SHERIDAN       FAIR      66  54  65 CALM      30.03R
BUFFALO        FAIR      62  52  69 SW3       30.09S
GILLETTE       FAIR      58  55  90 CALM      30.06R
HULETT         FAIR      61  55  82 MISG      30.05S
NEWCASTLE      MOCLDY    64  54  68 N13       30.08R

$$
WYZ014>020-022>026-101>103-080400-
CENTRAL WYOMING

CITY           SKY/WX    TMP DP  RH WIND       PRES   REMARKS
BIG PINEY      FAIR      55  50  83 W10       30.17R
PINEDALE       FAIR      55  50  82 NW8       30.19R
DUBOIS         CLOUDY    59  43  55 E9G23     30.20R
LANDER         MOCLDY    61  52  72 E7        30.13R
RIVERTON       CLOUDY    58  54  86 E6        30.12S
CASPER         MOCLDY    62  50  64 E5        30.09S
DOUGLAS        CLOUDY    60  57  89 NE15      30.10R

$$
WYZ021-027>030-104>119-080400-
SOUTHERN WYOMING

CITY           SKY/WX    TMP DP  RH WIND       PRES   REMARKS
EVANSTON       FAIR      56  50  80 CALM      30.16S
KEMMERER       MOCLDY    59  52  77 E3        30.19R
FORT BRIDGER   CLEAR     59  55  88 CALM      30.19R
ROCK SPRINGS   CLOUDY    55  50  83 E10       30.14F
DIXON          MOCLDY    60  56  85 CALM      30.15S
RAWLINS        CLOUDY    56  54  93 N5        30.16R
SARATOGA       CLOUDY    55  54  94 S7        30.17R
LARAMIE        MOCLDY    54  52  93 CALM      30.17F
CHEYENNE       FAIR      58  54  86 S7        30.13F FOG
TORRINGTON     MOCLDY    64  51  62 SE14      30.05R
PINE BLUFFS    CLOUDY    61  48  63 SE6       30.11S

$$



USA.gov is the U.S. government's official web portal to all federal, state and local government web resources and services.